Longville, MN

5:30 AM CST on December 06, 2016 (GMT -0600)
Longville Municipal

Weather History for KXVG - May, 2013

Change the Weather History Date:

Friday, May 31, 2013

  Actual Average (KPWC) Record (KPWC)
Temperature  
Mean Temperature 62 °F -  
Max Temperature 69 °F 67 °F 84 °F (2002)
Min Temperature 55 °F 45 °F 33 °F (2012)
Degree Days  
Heating Degree Days 3    
Growing Degree Days 12 (Base 50)    
Moisture  
Dew Point 55 °F    
Average Humidity 78    
Maximum Humidity 100    
Minimum Humidity 53    
Precipitation  
Precipitation 0.09 in - - ()
Sea Level Pressure  
Sea Level Pressure 29.50 in    
Wind  
Wind Speed 7 mph (SSE)    
Max Wind Speed 22 mph    
Max Gust Speed 31 mph    
Visibility 10 miles    
Events Rain    
Averages and records for this station are not official NWS values.
T = Trace of Precipitation, MM = Missing Value Source: NWS Daily Summary

Daily Weather History Graph

Daily Weather History Graph

Search for Another Location

Airport or City:

Trip Planner

Search our weather history database for the weather conditions in past years. The results will help you decide how hot, cold, wet, or windy it might be!

Date:

Astronomy

May. 31, 2013 Rise Set
Actual Time 5:26 AM CDT 9:03 PM CDT
Civil Twilight 4:47 AM CDT 9:42 PM CDT
Nautical Twilight 3:56 AM CDT 10:33 PM CDT
Astronomical Twilight 2:46 AM CDT 11:44 PM CDT
Moon 1:19 AM CDT (5/31) 1:02 PM CDT (5/31)
Length of Visible Light 16h 54m
Length of Day
15h 37m
Waning Gibbous, 51% of the Moon is Illuminated
May 31
Waning Gibbous
May 31
Last Quarter
Jun 8
New
Jun 16
First Quarter
Jun 23
Full

Hourly Weather History & Observations

Time (CDT) Temp. Dew Point Humidity Pressure Visibility Wind Dir Wind Speed Gust Speed Precip Events Conditions
12:16 AM 62.6 °F 60.8 °F 94% 29.51 in 10.0 mi SSE 4.6 mph - 0.07 in Rain Rain
12:36 AM 62.6 °F 60.8 °F 94% 29.50 in 10.0 mi ESE 4.6 mph - 0.08 in   Drizzle
12:56 AM 62.6 °F 60.8 °F 94% 29.50 in 7.0 mi Calm Calm - N/A Rain Light Rain
1:16 AM 62.6 °F 60.8 °F 94% 29.49 in 10.0 mi SE 3.5 mph - N/A Rain Light Rain
1:36 AM 62.6 °F 60.8 °F 94% 29.49 in 10.0 mi ESE 4.6 mph - N/A   Overcast
1:56 AM 62.6 °F 60.8 °F 94% 29.48 in 10.0 mi ESE 4.6 mph - N/A   Overcast
2:16 AM 62.6 °F 60.8 °F 94% 29.49 in 5.0 mi SE 8.1 mph - 0.09 in Rain Rain
2:36 AM 62.6 °F 60.8 °F 94% 29.48 in 7.0 mi SSE 6.9 mph - 0.09 in Rain Rain
2:56 AM 62.6 °F 60.8 °F 94% 29.48 in 10.0 mi SSE 6.9 mph - N/A   Mostly Cloudy
3:16 AM 62.6 °F 60.8 °F 94% 29.48 in 10.0 mi SSE 6.9 mph - N/A   Mostly Cloudy
3:36 AM 62.6 °F 60.8 °F 94% 29.48 in 10.0 mi SSE 6.9 mph - N/A   Overcast
3:56 AM 62.6 °F 60.8 °F 94% 29.49 in 10.0 mi South 13.8 mph 18.4 mph N/A Rain Light Rain
4:16 AM 60.8 °F 57.2 °F 88% 29.48 in 10.0 mi SSW 4.6 mph 16.1 mph N/A   Scattered Clouds
4:36 AM 59.0 °F 55.4 °F 88% 29.46 in 10.0 mi Calm Calm - N/A Rain Rain
4:56 AM 57.2 °F 55.4 °F 94% 29.47 in 10.0 mi ESE 4.6 mph - N/A   Scattered Clouds
5:16 AM 57.2 °F 55.4 °F 94% 29.47 in 10.0 mi SE 3.5 mph - N/A   Clear
5:36 AM 55.4 °F 55.4 °F 100% 29.47 in 10.0 mi Calm Calm - N/A   Clear
5:56 AM 55.4 °F 55.4 °F 100% 29.46 in 10.0 mi Calm Calm - N/A   Clear
6:16 AM 55.4 °F 55.4 °F 100% 29.47 in 10.0 mi Calm Calm - N/A   Clear
6:36 AM 57.2 °F 57.2 °F 100% 29.46 in 10.0 mi ESE 3.5 mph - N/A   Clear
6:56 AM 59.0 °F 59.0 °F 100% 29.46 in 10.0 mi SE 9.2 mph - N/A   Mostly Cloudy
7:16 AM 60.8 °F 59.0 °F 94% 29.46 in 10.0 mi SE 5.8 mph - N/A   Mostly Cloudy
7:36 AM 60.8 °F 59.0 °F 94% 29.45 in 10.0 mi SE 6.9 mph - N/A   Scattered Clouds
7:56 AM 62.6 °F 59.0 °F 88% 29.45 in 10.0 mi SE 11.5 mph 20.7 mph N/A   Clear
8:16 AM 62.6 °F 57.2 °F 82% 29.45 in 10.0 mi SE 15.0 mph 20.7 mph N/A   Scattered Clouds
8:36 AM 62.6 °F 57.2 °F 82% 29.45 in 10.0 mi SSE 11.5 mph 17.3 mph N/A   Scattered Clouds
8:56 AM 62.6 °F 57.2 °F 82% 29.46 in 10.0 mi SSE 10.4 mph 17.3 mph N/A   Scattered Clouds
9:16 AM 62.6 °F 57.2 °F 82% 29.46 in 10.0 mi SSE 13.8 mph 19.6 mph N/A   Scattered Clouds
9:36 AM 64.4 °F 57.2 °F 77% 29.45 in 10.0 mi SSE 11.5 mph 20.7 mph N/A   Clear
9:56 AM 62.6 °F 57.2 °F 82% 29.46 in 10.0 mi SE 8.1 mph - N/A   Scattered Clouds
10:16 AM 64.4 °F 55.4 °F 73% 29.45 in 10.0 mi SSE 10.4 mph 20.7 mph N/A   Scattered Clouds
10:36 AM 64.4 °F 55.4 °F 73% 29.45 in 10.0 mi SE 13.8 mph 21.9 mph N/A   Clear
10:56 AM 64.4 °F 55.4 °F 73% 29.45 in 10.0 mi SSE 12.7 mph 19.6 mph N/A   Scattered Clouds
11:16 AM 66.2 °F 55.4 °F 68% 29.45 in 10.0 mi South 15.0 mph 21.9 mph N/A   Scattered Clouds
11:36 AM 68.0 °F 53.6 °F 60% 29.46 in 10.0 mi South 16.1 mph 23.0 mph N/A   Scattered Clouds
11:56 AM 66.2 °F 53.6 °F 64% 29.46 in 10.0 mi South 12.7 mph 25.3 mph N/A   Scattered Clouds
12:16 PM 69.8 °F 53.6 °F 56% 29.47 in 10.0 mi South 18.4 mph 26.5 mph N/A   Scattered Clouds
12:36 PM 69.8 °F 51.8 °F 53% 29.47 in 10.0 mi SSE 17.3 mph 28.8 mph N/A   Scattered Clouds
12:56 PM 69.8 °F 51.8 °F 53% 29.48 in 10.0 mi South 15.0 mph 31.1 mph N/A   Clear
1:16 PM 68.0 °F 53.6 °F 60% 29.48 in 10.0 mi South 16.1 mph 21.9 mph N/A   Scattered Clouds
1:36 PM 69.8 °F 53.6 °F 56% 29.49 in 10.0 mi SSE 21.9 mph 29.9 mph N/A   Scattered Clouds
1:56 PM 69.8 °F 51.8 °F 53% 29.49 in 10.0 mi SSE 16.1 mph 28.8 mph N/A   Scattered Clouds
2:16 PM 66.2 °F 51.8 °F 60% 29.50 in 10.0 mi SSE 12.7 mph 27.6 mph N/A   Scattered Clouds
2:36 PM 66.2 °F 51.8 °F 60% 29.51 in 10.0 mi South 15.0 mph 23.0 mph N/A   Mostly Cloudy
2:56 PM 66.2 °F 53.6 °F 64% 29.51 in 10.0 mi SSE 11.5 mph 20.7 mph N/A   Scattered Clouds
3:16 PM 64.4 °F 51.8 °F 64% 29.51 in 10.0 mi South 11.5 mph 24.2 mph N/A   Scattered Clouds
3:36 PM 68.0 °F 53.6 °F 60% 29.51 in 10.0 mi South 9.2 mph 17.3 mph N/A   Scattered Clouds
3:56 PM 66.2 °F 51.8 °F 60% 29.51 in 10.0 mi South 13.8 mph 21.9 mph N/A   Scattered Clouds
4:16 PM 68.0 °F 51.8 °F 56% 29.51 in 10.0 mi SSW 10.4 mph - N/A   Scattered Clouds
4:36 PM 66.2 °F 51.8 °F 60% 29.51 in 10.0 mi South 10.4 mph - N/A   Scattered Clouds
4:56 PM 66.2 °F 51.8 °F 60% 29.51 in 10.0 mi SSW 4.6 mph - N/A   Scattered Clouds
5:16 PM 66.2 °F 51.8 °F 60% 29.52 in 10.0 mi South 11.5 mph 16.1 mph N/A   Mostly Cloudy
5:36 PM 66.2 °F 51.8 °F 60% 29.52 in 10.0 mi SW 5.8 mph - N/A   Mostly Cloudy
5:56 PM 64.4 °F 50.0 °F 59% 29.53 in 10.0 mi SSW 6.9 mph - N/A   Mostly Cloudy
6:16 PM 64.4 °F 51.8 °F 64% 29.53 in 10.0 mi Calm Calm - N/A   Scattered Clouds
6:36 PM 64.4 °F 51.8 °F 64% 29.53 in 10.0 mi South 3.5 mph - N/A   Scattered Clouds
6:56 PM 64.4 °F 51.8 °F 64% 29.53 in 10.0 mi South 6.9 mph - N/A   Scattered Clouds
7:16 PM 64.4 °F 51.8 °F 64% 29.54 in 10.0 mi South 5.8 mph - N/A   Scattered Clouds
7:36 PM 64.4 °F 51.8 °F 64% 29.55 in 10.0 mi South 4.6 mph - N/A   Scattered Clouds
7:56 PM 62.6 °F 53.6 °F 72% 29.55 in 10.0 mi Calm Calm - N/A   Scattered Clouds
8:16 PM 62.6 °F 53.6 °F 72% 29.55 in 10.0 mi Calm Calm - N/A   Scattered Clouds
8:36 PM 62.6 °F 53.6 °F 72% 29.55 in 10.0 mi Calm Calm - N/A   Scattered Clouds
8:56 PM 60.8 °F 53.6 °F 77% 29.55 in 10.0 mi Calm Calm - N/A   Scattered Clouds
9:16 PM 59.0 °F 53.6 °F 82% 29.55 in 10.0 mi Calm Calm - N/A   Scattered Clouds
9:36 PM 59.0 °F 53.6 °F 82% 29.55 in 10.0 mi Calm Calm - N/A   Clear
9:56 PM 59.0 °F 53.6 °F 82% 29.55 in 10.0 mi Calm Calm - N/A   Scattered Clouds
10:16 PM 57.2 °F 55.4 °F 94% 29.56 in 10.0 mi Calm Calm - N/A   Scattered Clouds
10:36 PM 57.2 °F 55.4 °F 94% 29.56 in 10.0 mi Calm Calm - N/A   Clear
10:56 PM 57.2 °F 55.4 °F 94% 29.56 in 10.0 mi Calm Calm - N/A   Clear
11:16 PM 57.2 °F 55.4 °F 94% 29.56 in 10.0 mi Calm Calm - N/A   Clear
11:36 PM 57.2 °F 55.4 °F 94% 29.56 in 10.0 mi Calm Calm - N/A   Clear
11:56 PM 57.2 °F 55.4 °F 94% 29.56 in 10.0 mi Calm Calm - N/A   Clear